Location: Le Petit-Vavre
(46.5081°N, 1.5239°E)
Time: 07:14:58
(UTC+00:00)

USA 308 - Pass Details

Date: 03 March 2021
Orbit: 568 x 576 km, 54.0° (Epoch: 16 April)

Event Time Altitude Azimuth Distance (km) Brightness Sun altitude
Rises 18:25:30 0° 274° (W) 2,776 8.9 -8.1°
Reaches altitude 10° 18:27:56 10° 284° (WNW) 1,877 7.0 -8.5°
Maximum altitude 18:31:49 33° 349° (N) 980 4.2 -9.2°
Drops below altitude 10° 18:35:41 10° 54° (NE) 1,876 5.1 -9.9°
Enters shadow 18:36:00 - 56° (NE) 1,989 5.2 -9.9°
